Year,Month,Day,Hour,Minute,Value (Times are PST for temperature in C)
2009,09,12,00,00,15.30
2009,09,12,00,01,15.30
2009,09,12,00,02,15.30
2009,09,12,00,03,15.30
2009,09,12,00,04,15.30
2009,09,12,00,05,15.30
2009,09,12,00,06,15.30
2009,09,12,00,07,15.30
2009,09,12,00,08,15.30
2009,09,12,00,09,15.30
2009,09,12,00,10,15.30
2009,09,12,00,11,15.30
2009,09,12,00,12,15.30
2009,09,12,00,13,15.30
2009,09,12,00,14,15.30
2009,09,12,00,15,15.30
2009,09,12,00,16,15.30
2009,09,12,00,17,15.30
2009,09,12,00,18,15.30
2009,09,12,00,19,15.20
2009,09,12,00,20,15.20
2009,09,12,00,21,15.20
2009,09,12,00,22,15.20
2009,09,12,00,23,15.10
2009,09,12,00,24,15.10
2009,09,12,00,25,15.10
2009,09,12,00,26,15.10
2009,09,12,00,27,15.10
2009,09,12,00,28,15.10
2009,09,12,00,29,15.10
2009,09,12,00,30,15.00
2009,09,12,00,31,15.00
2009,09,12,00,32,15.00
2009,09,12,00,33,15.00
2009,09,12,00,34,15.00
2009,09,12,00,35,15.00
2009,09,12,00,36,15.00
2009,09,12,00,37,14.90
2009,09,12,00,38,14.90
2009,09,12,00,39,14.90
2009,09,12,00,40,14.90
2009,09,12,00,41,14.80
2009,09,12,00,42,14.80
2009,09,12,00,43,14.80
2009,09,12,00,44,14.80
2009,09,12,00,45,14.80
2009,09,12,00,46,14.80
2009,09,12,00,47,14.80
2009,09,12,00,48,14.80
2009,09,12,00,49,14.70
2009,09,12,00,50,14.70
2009,09,12,00,51,14.80
2009,09,12,00,52,14.80
2009,09,12,00,53,14.90
2009,09,12,00,54,14.90
2009,09,12,00,55,14.90
2009,09,12,00,56,14.90
2009,09,12,00,57,15.00
2009,09,12,00,58,15.00
2009,09,12,00,59,15.00
2009,09,12,01,00,15.00
2009,09,12,01,01,15.00
2009,09,12,01,02,14.90
2009,09,12,01,03,14.90
2009,09,12,01,04,14.90
2009,09,12,01,05,14.90
2009,09,12,01,06,15.00
2009,09,12,01,07,15.00
2009,09,12,01,08,15.00
2009,09,12,01,09,15.00
2009,09,12,01,10,15.00
2009,09,12,01,11,15.00
2009,09,12,01,12,15.00
2009,09,12,01,13,14.90
2009,09,12,01,14,14.90
2009,09,12,01,15,14.90
2009,09,12,01,16,14.90
2009,09,12,01,17,14.90
2009,09,12,01,18,15.00
2009,09,12,01,19,15.00
2009,09,12,01,20,15.00
2009,09,12,01,21,15.00
2009,09,12,01,22,15.00
2009,09,12,01,23,15.00
2009,09,12,01,24,15.00
2009,09,12,01,25,15.00
2009,09,12,01,26,15.00
2009,09,12,01,27,14.90
2009,09,12,01,28,14.90
2009,09,12,01,29,14.90
2009,09,12,01,30,14.90
2009,09,12,01,31,14.90
2009,09,12,01,32,15.00
2009,09,12,01,33,15.00
2009,09,12,01,34,15.10
2009,09,12,01,35,15.10
2009,09,12,01,36,15.10
2009,09,12,01,37,15.20
2009,09,12,01,38,15.20
2009,09,12,01,39,15.20
2009,09,12,01,40,15.20
2009,09,12,01,41,15.20
2009,09,12,01,42,15.20
2009,09,12,01,43,15.20
2009,09,12,01,44,15.20
2009,09,12,01,45,15.20
2009,09,12,01,46,15.20
2009,09,12,01,47,15.20
2009,09,12,01,48,15.30
2009,09,12,01,49,15.30
2009,09,12,01,50,15.30
2009,09,12,01,51,15.30
2009,09,12,01,52,15.30
2009,09,12,01,53,15.40
2009,09,12,01,54,15.40
2009,09,12,01,55,15.40
2009,09,12,01,56,15.50
2009,09,12,01,57,15.50
2009,09,12,01,58,15.50
2009,09,12,01,59,15.50
2009,09,12,02,00,15.50
2009,09,12,02,01,15.50
2009,09,12,02,02,15.50
2009,09,12,02,03,15.50
2009,09,12,02,04,15.50
2009,09,12,02,05,15.50
2009,09,12,02,06,15.60
2009,09,12,02,07,15.60
2009,09,12,02,08,15.60
2009,09,12,02,09,15.60
2009,09,12,02,10,15.60
2009,09,12,02,11,15.60
2009,09,12,02,12,15.60
2009,09,12,02,13,15.70
2009,09,12,02,14,15.70
2009,09,12,02,15,15.70
2009,09,12,02,16,15.70
2009,09,12,02,17,15.70
2009,09,12,02,18,15.70
2009,09,12,02,19,15.70
2009,09,12,02,20,15.70
2009,09,12,02,21,15.70
2009,09,12,02,22,15.70
2009,09,12,02,23,15.70
2009,09,12,02,24,15.70
2009,09,12,02,25,15.70
2009,09,12,02,26,15.70
2009,09,12,02,27,15.70
2009,09,12,02,28,15.70
2009,09,12,02,29,15.60
2009,09,12,02,30,15.60
2009,09,12,02,31,15.60
2009,09,12,02,32,15.60
2009,09,12,02,33,15.60
2009,09,12,02,34,15.60
2009,09,12,02,35,15.50
2009,09,12,02,36,15.50
2009,09,12,02,37,15.50
2009,09,12,02,38,15.50
2009,09,12,02,39,15.50
2009,09,12,02,40,15.50
2009,09,12,02,41,15.50
2009,09,12,02,42,15.50
2009,09,12,02,43,15.40
2009,09,12,02,44,15.40
2009,09,12,02,45,15.40
2009,09,12,02,46,15.40
2009,09,12,02,47,15.30
2009,09,12,02,48,15.30
2009,09,12,02,49,15.30
2009,09,12,02,50,15.30
2009,09,12,02,51,15.30
2009,09,12,02,52,15.30
2009,09,12,02,53,15.30
2009,09,12,02,54,15.30
2009,09,12,02,55,15.30
2009,09,12,02,56,15.30
2009,09,12,02,57,15.30
2009,09,12,02,58,15.30
2009,09,12,02,59,15.30
2009,09,12,03,00,15.30
2009,09,12,03,01,15.30
2009,09,12,03,02,15.30
2009,09,12,03,03,15.30
2009,09,12,03,04,15.30
2009,09,12,03,05,15.30
2009,09,12,03,06,15.30
2009,09,12,03,07,15.30
2009,09,12,03,08,15.30
2009,09,12,03,09,15.40
2009,09,12,03,10,15.40
2009,09,12,03,11,15.40
2009,09,12,03,12,15.40
2009,09,12,03,13,15.50
2009,09,12,03,14,15.50
2009,09,12,03,15,15.50
2009,09,12,03,16,15.50
2009,09,12,03,17,15.50
2009,09,12,03,18,15.50
2009,09,12,03,19,15.50
2009,09,12,03,20,15.40
2009,09,12,03,21,15.40
2009,09,12,03,22,15.30
2009,09,12,03,23,15.30
2009,09,12,03,24,15.30
2009,09,12,03,25,15.30
2009,09,12,03,26,15.20
2009,09,12,03,27,15.20
2009,09,12,03,28,15.10
2009,09,12,03,29,15.10
2009,09,12,03,30,15.10
2009,09,12,03,31,15.00
2009,09,12,03,32,15.00
2009,09,12,03,33,14.90
2009,09,12,03,34,14.90
2009,09,12,03,35,14.80
2009,09,12,03,36,14.80
2009,09,12,03,37,14.80
2009,09,12,03,38,14.80
2009,09,12,03,39,14.80
2009,09,12,03,40,14.80
2009,09,12,03,41,14.70
2009,09,12,03,42,14.70
2009,09,12,03,43,14.70
2009,09,12,03,44,14.70
2009,09,12,03,45,14.60
2009,09,12,03,46,14.60
2009,09,12,03,47,14.50
2009,09,12,03,48,14.50
2009,09,12,03,49,14.40
2009,09,12,03,50,14.40
2009,09,12,03,51,14.30
2009,09,12,03,52,14.20
2009,09,12,03,53,14.20
2009,09,12,03,54,14.20
2009,09,12,03,55,14.20
2009,09,12,03,56,14.20
2009,09,12,03,57,14.20
2009,09,12,03,58,14.20
2009,09,12,03,59,14.20
2009,09,12,04,00,14.20
2009,09,12,04,01,14.20
2009,09,12,04,02,14.20
2009,09,12,04,03,14.20
2009,09,12,04,04,14.10
2009,09,12,04,05,14.10
2009,09,12,04,06,14.00
2009,09,12,04,07,14.00
2009,09,12,04,08,14.00
2009,09,12,04,09,14.00
2009,09,12,04,10,14.00
2009,09,12,04,11,14.00
2009,09,12,04,12,13.90
2009,09,12,04,13,13.90
2009,09,12,04,14,13.90
2009,09,12,04,15,13.90
2009,09,12,04,16,14.00
2009,09,12,04,17,14.00
2009,09,12,04,18,14.00
2009,09,12,04,19,14.00
2009,09,12,04,20,14.10
2009,09,12,04,21,14.10
2009,09,12,04,22,14.10
2009,09,12,04,23,14.00
2009,09,12,04,24,14.00
2009,09,12,04,25,13.90
2009,09,12,04,26,13.90
2009,09,12,04,27,13.90
2009,09,12,04,28,13.90
2009,09,12,04,29,13.90
2009,09,12,04,30,13.90
2009,09,12,04,31,13.90
2009,09,12,04,32,13.90
2009,09,12,04,33,13.90
2009,09,12,04,34,13.90
2009,09,12,04,35,13.90
2009,09,12,04,36,13.90
2009,09,12,04,37,13.80
2009,09,12,04,38,13.80
2009,09,12,04,39,13.80
2009,09,12,04,40,13.80
2009,09,12,04,41,13.80
2009,09,12,04,42,13.80
2009,09,12,04,43,13.80
2009,09,12,04,44,13.80
2009,09,12,04,45,13.80
2009,09,12,04,46,13.90
2009,09,12,04,47,13.90
2009,09,12,04,48,13.90
2009,09,12,04,49,14.00
2009,09,12,04,50,14.00
2009,09,12,04,51,14.00
2009,09,12,04,52,14.00
2009,09,12,04,53,14.00
2009,09,12,04,54,13.90
2009,09,12,04,55,13.90
2009,09,12,04,56,13.90
2009,09,12,04,57,13.80
2009,09,12,04,58,13.80
2009,09,12,04,59,13.80
2009,09,12,05,00,13.80
2009,09,12,05,01,13.80
2009,09,12,05,02,13.80
2009,09,12,05,03,13.80
2009,09,12,05,04,13.70
2009,09,12,05,05,13.70
2009,09,12,05,06,13.70
2009,09,12,05,07,13.70
2009,09,12,05,08,13.70
2009,09,12,05,09,13.70
2009,09,12,05,10,13.60
2009,09,12,05,11,13.60
2009,09,12,05,12,13.60
2009,09,12,05,13,13.60
2009,09,12,05,14,13.50
2009,09,12,05,15,13.50
2009,09,12,05,16,13.50
2009,09,12,05,17,13.50
2009,09,12,05,18,13.40
2009,09,12,05,19,13.40
2009,09,12,05,20,13.40
2009,09,12,05,21,13.40
2009,09,12,05,22,13.40
2009,09,12,05,23,13.40
2009,09,12,05,24,13.40
2009,09,12,05,25,13.30
2009,09,12,05,26,13.30
2009,09,12,05,27,13.30
2009,09,12,05,28,13.30
2009,09,12,05,29,13.30
2009,09,12,05,30,13.30
2009,09,12,05,31,13.30
2009,09,12,05,32,13.20
2009,09,12,05,33,13.20
2009,09,12,05,34,13.20
2009,09,12,05,35,13.20
2009,09,12,05,36,13.20
2009,09,12,05,37,13.10
2009,09,12,05,38,13.10
2009,09,12,05,39,13.10
2009,09,12,05,40,13.10
2009,09,12,05,41,13.10
2009,09,12,05,42,13.10
2009,09,12,05,43,13.00
2009,09,12,05,44,13.00
2009,09,12,05,45,13.00
2009,09,12,05,46,13.00
2009,09,12,05,47,13.00
2009,09,12,05,48,12.90
2009,09,12,05,49,12.90
2009,09,12,05,50,12.90
2009,09,12,05,51,13.00
2009,09,12,05,52,13.00
2009,09,12,05,53,13.00
2009,09,12,05,54,13.00
2009,09,12,05,55,13.00
2009,09,12,05,56,13.00
2009,09,12,05,57,13.00
2009,09,12,05,58,13.00
2009,09,12,05,59,12.90
2009,09,12,06,00,12.90
2009,09,12,06,01,12.90
2009,09,12,06,02,12.90
2009,09,12,06,03,12.90
2009,09,12,06,04,13.00
2009,09,12,06,05,13.10
2009,09,12,06,06,13.10
2009,09,12,06,07,13.20
2009,09,12,06,08,13.30
2009,09,12,06,09,13.30
2009,09,12,06,10,13.30
2009,09,12,06,11,13.30
2009,09,12,06,12,13.30
2009,09,12,06,13,13.30
2009,09,12,06,14,13.30
2009,09,12,06,15,13.30
2009,09,12,06,16,13.30
2009,09,12,06,17,13.30
2009,09,12,06,18,13.30
2009,09,12,06,19,13.20
2009,09,12,06,20,13.20
2009,09,12,06,21,13.20
2009,09,12,06,22,13.20
2009,09,12,06,23,13.10
2009,09,12,06,24,13.10
2009,09,12,06,25,13.10
2009,09,12,06,26,13.10
2009,09,12,06,27,13.10
2009,09,12,06,28,13.10
2009,09,12,06,29,13.10
2009,09,12,06,30,13.10
2009,09,12,06,31,13.10
2009,09,12,06,32,13.10
2009,09,12,06,33,13.10
2009,09,12,06,34,13.10
2009,09,12,06,35,13.20
2009,09,12,06,36,13.20
2009,09,12,06,37,13.20
2009,09,12,06,38,13.20
2009,09,12,06,39,13.20
2009,09,12,06,40,13.20
2009,09,12,06,41,13.30
2009,09,12,06,42,13.30
2009,09,12,06,43,13.30
2009,09,12,06,44,13.30
2009,09,12,06,45,13.40
2009,09,12,06,46,13.50
2009,09,12,06,47,13.60
2009,09,12,06,48,13.60
2009,09,12,06,49,13.70
2009,09,12,06,50,13.80
2009,09,12,06,51,13.90
2009,09,12,06,52,14.10
2009,09,12,06,53,14.30
2009,09,12,06,54,14.50
2009,09,12,06,55,14.80
2009,09,12,06,56,15.00
2009,09,12,06,57,15.20
2009,09,12,06,58,15.40
2009,09,12,06,59,15.50
2009,09,12,07,00,15.60
2009,09,12,07,01,15.60
2009,09,12,07,02,15.60
2009,09,12,07,03,15.60
2009,09,12,07,04,15.60
2009,09,12,07,05,15.50
2009,09,12,07,06,15.30
2009,09,12,07,07,15.30
2009,09,12,07,08,15.10
2009,09,12,07,09,15.00
2009,09,12,07,10,14.90
2009,09,12,07,11,14.80
2009,09,12,07,12,14.80
2009,09,12,07,13,14.70
2009,09,12,07,14,14.60
2009,09,12,07,15,14.60
2009,09,12,07,16,14.50
2009,09,12,07,17,14.50
2009,09,12,07,18,14.40
2009,09,12,07,19,14.40
2009,09,12,07,20,14.40
2009,09,12,07,21,14.40
2009,09,12,07,22,14.40
2009,09,12,07,23,14.40
2009,09,12,07,24,14.40
2009,09,12,07,25,14.40
2009,09,12,07,26,14.40
2009,09,12,07,27,14.40
2009,09,12,07,28,14.40
2009,09,12,07,29,14.40
2009,09,12,07,30,14.50
2009,09,12,07,31,14.50
2009,09,12,07,32,14.60
2009,09,12,07,33,14.60
2009,09,12,07,34,14.70
2009,09,12,07,35,14.80
2009,09,12,07,36,14.80
2009,09,12,07,37,14.90
2009,09,12,07,38,15.00
2009,09,12,07,39,15.00
2009,09,12,07,40,15.10
2009,09,12,07,41,15.10
2009,09,12,07,42,15.30
2009,09,12,07,43,15.40
2009,09,12,07,44,15.50
2009,09,12,07,45,15.60
2009,09,12,07,46,15.70
2009,09,12,07,47,15.80
2009,09,12,07,48,16.00
2009,09,12,07,49,16.10
2009,09,12,07,50,16.20
2009,09,12,07,51,16.30
2009,09,12,07,52,16.30
2009,09,12,07,53,16.40
2009,09,12,07,54,16.40
2009,09,12,07,55,16.50
2009,09,12,07,56,16.60
2009,09,12,07,57,16.60
2009,09,12,07,58,16.70
2009,09,12,07,59,16.70
2009,09,12,08,00,16.80
2009,09,12,08,01,16.80
2009,09,12,08,02,16.90
2009,09,12,08,03,16.90
2009,09,12,08,04,17.00
2009,09,12,08,05,17.00
2009,09,12,08,06,17.10
2009,09,12,08,07,17.20
2009,09,12,08,08,17.20
2009,09,12,08,09,17.30
2009,09,12,08,10,17.30
2009,09,12,08,11,17.30
2009,09,12,08,12,17.40
2009,09,12,08,13,17.40
2009,09,12,08,14,17.50
2009,09,12,08,15,17.50
2009,09,12,08,16,17.60
2009,09,12,08,17,17.70
2009,09,12,08,18,17.70
2009,09,12,08,19,17.80
2009,09,12,08,20,17.90
2009,09,12,08,21,17.90
2009,09,12,08,22,18.00
2009,09,12,08,23,18.10
2009,09,12,08,24,18.20
2009,09,12,08,25,18.20
2009,09,12,08,26,18.20
2009,09,12,08,27,18.20
2009,09,12,08,28,18.20
2009,09,12,08,29,18.20
2009,09,12,08,30,18.20
2009,09,12,08,31,18.20
2009,09,12,08,32,18.20
2009,09,12,08,33,18.20
2009,09,12,08,34,18.20
2009,09,12,08,35,18.20
2009,09,12,08,36,18.30
2009,09,12,08,37,18.30
2009,09,12,08,38,18.40
2009,09,12,08,39,18.40
2009,09,12,08,40,18.50
2009,09,12,08,41,18.50
2009,09,12,08,42,18.50
2009,09,12,08,43,18.60
2009,09,12,08,44,18.60
2009,09,12,08,45,18.60
2009,09,12,08,46,18.70
2009,09,12,08,47,18.70
2009,09,12,08,48,18.70
2009,09,12,08,49,18.70
2009,09,12,08,50,18.80
2009,09,12,08,51,18.80
2009,09,12,08,52,18.80
2009,09,12,08,53,18.90
2009,09,12,08,54,18.90
2009,09,12,08,55,18.90
2009,09,12,08,56,19.00
2009,09,12,08,57,19.10
2009,09,12,08,58,19.10
2009,09,12,08,59,19.10
2009,09,12,09,00,19.10
2009,09,12,09,01,19.10
2009,09,12,09,02,19.10
2009,09,12,09,03,19.20
2009,09,12,09,04,19.20
2009,09,12,09,05,19.20
2009,09,12,09,06,19.20
2009,09,12,09,07,19.20
2009,09,12,09,08,19.20
2009,09,12,09,09,19.10
2009,09,12,09,10,19.10
2009,09,12,09,11,19.10
2009,09,12,09,12,19.10
2009,09,12,09,13,19.10
2009,09,12,10,47,21.30
2009,09,12,10,48,21.30
2009,09,12,10,49,21.40
2009,09,12,10,50,21.40
2009,09,12,10,51,21.50
2009,09,12,10,52,21.60
2009,09,12,10,53,21.60
2009,09,12,10,54,21.60
2009,09,12,10,55,21.70
2009,09,12,10,56,21.70
2009,09,12,10,57,21.80
2009,09,12,10,58,21.80
2009,09,12,10,59,21.80
2009,09,12,11,00,21.80
2009,09,12,11,01,21.90
2009,09,12,11,02,21.90
2009,09,12,11,03,21.90
2009,09,12,11,04,22.00
2009,09,12,11,05,22.00
2009,09,12,11,06,22.10
2009,09,12,11,07,22.20
2009,09,12,11,08,22.20
2009,09,12,11,09,22.30
2009,09,12,11,10,22.40
2009,09,12,11,11,22.40
2009,09,12,11,12,22.40
2009,09,12,11,13,22.50
2009,09,12,11,14,22.50
2009,09,12,11,15,22.50
2009,09,12,11,16,22.40
2009,09,12,11,17,22.40
2009,09,12,11,18,22.40
2009,09,12,11,19,22.30
2009,09,12,11,20,22.30
2009,09,12,11,21,22.40
2009,09,12,11,22,22.40
2009,09,12,11,23,22.50
2009,09,12,11,24,22.50
2009,09,12,11,25,22.60
2009,09,12,11,26,22.60
2009,09,12,11,27,22.60
2009,09,12,11,28,22.60
2009,09,12,11,29,22.70
2009,09,12,11,30,22.80
2009,09,12,11,31,22.90
2009,09,12,11,32,22.90
2009,09,12,11,33,23.00
2009,09,12,11,34,23.10
2009,09,12,11,35,23.10
2009,09,12,11,36,23.10
2009,09,12,11,37,23.00
2009,09,12,11,38,22.90
2009,09,12,11,39,22.90
2009,09,12,11,40,22.80
2009,09,12,11,41,22.80
2009,09,12,11,42,22.80
2009,09,12,11,43,22.90
2009,09,12,11,44,22.90
2009,09,12,11,45,22.90
2009,09,12,11,46,22.90
2009,09,12,11,47,22.90
2009,09,12,11,48,22.90
2009,09,12,11,49,22.90
2009,09,12,11,50,22.90
2009,09,12,11,51,22.90
2009,09,12,11,52,22.90
2009,09,12,11,53,22.90
2009,09,12,11,54,22.90
2009,09,12,11,55,22.90
2009,09,12,11,56,22.80
2009,09,12,11,57,22.80
2009,09,12,11,58,22.80
2009,09,12,11,59,22.80
2009,09,12,12,00,22.80
2009,09,12,12,01,22.80
2009,09,12,12,02,22.70
2009,09,12,12,03,22.70
2009,09,12,12,04,22.70
2009,09,12,12,05,22.80
2009,09,12,12,06,22.80
2009,09,12,12,07,22.80
2009,09,12,12,08,22.90
2009,09,12,12,09,22.90
2009,09,12,12,10,22.80
2009,09,12,12,11,22.80
2009,09,12,12,12,22.80
2009,09,12,12,13,22.90
2009,09,12,12,14,22.90
2009,09,12,12,15,23.20
2009,09,12,12,16,23.40
2009,09,12,12,17,23.60
2009,09,12,12,18,23.70
2009,09,12,12,19,23.80
2009,09,12,12,20,24.00
2009,09,12,12,21,24.10
2009,09,12,12,22,24.10
2009,09,12,12,23,24.10
2009,09,12,12,24,24.20
2009,09,12,12,25,24.30
2009,09,12,12,26,24.40
2009,09,12,12,27,24.50
2009,09,12,12,28,24.50
2009,09,12,12,29,24.60
2009,09,12,12,30,24.50
2009,09,12,12,31,24.30
2009,09,12,12,32,24.10
2009,09,12,12,33,23.80
2009,09,12,12,34,23.70
2009,09,12,12,35,23.50
2009,09,12,12,36,23.30
2009,09,12,12,37,23.40
2009,09,12,12,38,23.40
2009,09,12,12,39,23.30
2009,09,12,12,40,23.30
2009,09,12,12,41,23.20
2009,09,12,12,42,23.20
2009,09,12,12,43,23.20
2009,09,12,12,44,23.10
2009,09,12,12,45,22.90
2009,09,12,12,46,22.90
2009,09,12,12,47,22.90
2009,09,12,12,48,22.80
2009,09,12,12,49,22.70
2009,09,12,12,50,22.60
2009,09,12,12,51,22.70
2009,09,12,12,52,22.80
2009,09,12,12,53,22.90
2009,09,12,12,54,22.90
2009,09,12,12,55,23.00
2009,09,12,12,56,23.10
2009,09,12,12,57,23.10
2009,09,12,12,58,23.00
2009,09,12,12,59,23.10
2009,09,12,13,00,23.10
2009,09,12,13,01,23.10
2009,09,12,13,02,23.00
2009,09,12,13,03,22.90
2009,09,12,13,04,22.70
2009,09,12,13,05,22.70
2009,09,12,13,06,22.60
2009,09,12,13,07,22.60
2009,09,12,13,08,22.50
2009,09,12,13,09,22.60
2009,09,12,13,10,22.60
2009,09,12,13,11,22.60
2009,09,12,13,12,22.70
2009,09,12,13,13,22.80
2009,09,12,13,14,22.90
2009,09,12,13,15,22.90
2009,09,12,13,16,22.90
2009,09,12,13,17,22.90
2009,09,12,13,18,22.90
2009,09,12,13,19,22.90
2009,09,12,13,20,22.90
2009,09,12,13,21,22.80
2009,09,12,13,22,22.90
2009,09,12,13,23,22.90
2009,09,12,13,24,22.80
2009,09,12,13,25,22.80
2009,09,12,13,26,22.80
2009,09,12,13,27,22.80
2009,09,12,13,28,22.90
2009,09,12,13,29,22.90
2009,09,12,13,30,22.90
2009,09,12,13,31,23.00
2009,09,12,13,32,23.10
2009,09,12,13,33,23.20
2009,09,12,13,34,23.20
2009,09,12,13,35,23.30
2009,09,12,13,36,23.40
2009,09,12,13,37,23.50
2009,09,12,13,38,23.70
2009,09,12,13,39,23.70
2009,09,12,13,40,23.70
2009,09,12,13,41,23.70
2009,09,12,13,42,23.70
2009,09,12,13,43,23.70
2009,09,12,13,44,23.80
2009,09,12,13,45,23.80
2009,09,12,13,46,23.80
2009,09,12,13,47,23.90
2009,09,12,13,48,24.00
2009,09,12,13,49,24.10
2009,09,12,13,50,24.10
2009,09,12,13,51,24.20
2009,09,12,13,52,24.10
2009,09,12,13,53,24.10
2009,09,12,13,54,24.10
2009,09,12,13,55,24.20
2009,09,12,13,56,24.40
2009,09,12,13,57,24.50
2009,09,12,13,58,24.60
2009,09,12,13,59,24.60
2009,09,12,14,00,24.60
2009,09,12,14,01,24.70
2009,09,12,14,02,24.90
2009,09,12,14,03,25.10
2009,09,12,14,04,25.20
2009,09,12,14,05,25.20
2009,09,12,14,06,25.30
2009,09,12,14,07,25.40
2009,09,12,14,08,25.50
2009,09,12,14,09,25.60
2009,09,12,14,10,25.70
2009,09,12,14,11,25.80
2009,09,12,14,12,25.90
2009,09,12,14,13,25.90
2009,09,12,14,14,25.90
2009,09,12,14,15,25.70
2009,09,12,14,16,25.60
2009,09,12,14,17,25.50
2009,09,12,14,18,25.40
2009,09,12,14,19,25.40
2009,09,12,14,20,25.40
2009,09,12,14,21,25.40
2009,09,12,14,22,25.50
2009,09,12,14,23,25.60
2009,09,12,14,24,25.60
2009,09,12,14,25,25.60
2009,09,12,14,26,25.60
2009,09,12,14,27,25.60
2009,09,12,14,28,25.70
2009,09,12,14,29,25.70
2009,09,12,14,30,25.70
2009,09,12,14,31,25.70
2009,09,12,14,32,25.70
2009,09,12,14,33,25.80
2009,09,12,14,34,25.90
2009,09,12,14,35,26.00
2009,09,12,14,36,26.20
2009,09,12,14,37,26.40
2009,09,12,14,38,26.50
2009,09,12,14,39,26.60
2009,09,12,14,40,26.70
2009,09,12,14,41,26.80
2009,09,12,14,42,26.80
2009,09,12,14,43,26.90
2009,09,12,14,44,26.90
2009,09,12,14,45,27.00
2009,09,12,14,46,27.10
2009,09,12,14,47,27.10
2009,09,12,14,48,27.10
2009,09,12,14,49,27.10
2009,09,12,14,50,27.00
2009,09,12,14,51,26.90
2009,09,12,14,52,26.80
2009,09,12,14,53,26.80
2009,09,12,14,54,26.90
2009,09,12,14,55,26.90
2009,09,12,14,56,27.10
2009,09,12,14,57,27.10
2009,09,12,14,58,27.20
2009,09,12,14,59,27.30
2009,09,12,15,00,27.40
2009,09,12,15,01,27.60
2009,09,12,15,02,27.70
2009,09,12,15,03,27.70
2009,09,12,15,04,27.70
2009,09,12,15,05,27.70
2009,09,12,15,06,27.70
2009,09,12,15,07,27.70
2009,09,12,15,08,27.60
2009,09,12,15,09,27.60
2009,09,12,15,10,27.60
2009,09,12,15,11,27.60
2009,09,12,15,12,27.70
2009,09,12,15,13,27.70
2009,09,12,15,14,27.70
2009,09,12,15,15,27.70
2009,09,12,15,16,27.70
2009,09,12,15,17,27.70
2009,09,12,15,18,27.70
2009,09,12,15,19,27.70
2009,09,12,15,20,27.70
2009,09,12,15,21,27.70
2009,09,12,15,22,27.80
2009,09,12,15,23,27.60
2009,09,12,15,24,27.40
2009,09,12,15,25,27.30
2009,09,12,15,26,27.30
2009,09,12,15,27,27.20
2009,09,12,15,28,27.20
2009,09,12,15,29,27.10
2009,09,12,15,30,27.00
2009,09,12,15,31,26.80
2009,09,12,15,32,26.80
2009,09,12,15,33,26.90
2009,09,12,15,34,26.90
2009,09,12,15,35,26.90
2009,09,12,15,36,26.90
2009,09,12,15,37,26.80
2009,09,12,15,38,26.80
2009,09,12,15,39,26.60
2009,09,12,15,40,26.60
2009,09,12,15,41,26.60
2009,09,12,15,42,26.60
2009,09,12,15,43,26.60
2009,09,12,15,44,26.70
2009,09,12,15,45,26.80
2009,09,12,15,46,26.90
2009,09,12,15,47,27.00
2009,09,12,15,48,27.10
2009,09,12,15,49,27.00
2009,09,12,15,50,26.90
2009,09,12,15,51,26.80
2009,09,12,15,52,26.80
2009,09,12,15,53,26.70
2009,09,12,15,54,26.70
2009,09,12,15,55,26.70
2009,09,12,15,56,26.70
2009,09,12,15,57,26.60
2009,09,12,15,58,26.60
2009,09,12,15,59,26.60
2009,09,12,16,00,26.50
2009,09,12,16,01,26.50
2009,09,12,16,02,26.60
2009,09,12,16,03,26.60
2009,09,12,16,04,26.50
2009,09,12,16,05,26.60
2009,09,12,16,06,26.60
2009,09,12,16,07,26.60
2009,09,12,16,08,26.60
2009,09,12,16,09,26.60
2009,09,12,16,10,26.50
2009,09,12,16,11,26.40
2009,09,12,16,12,26.40
2009,09,12,16,13,26.40
2009,09,12,16,14,26.40
2009,09,12,16,15,26.40
2009,09,12,16,16,26.60
2009,09,12,16,17,26.60
2009,09,12,16,18,26.60
2009,09,12,16,19,26.60
2009,09,12,16,20,26.50
2009,09,12,16,21,26.20
2009,09,12,16,22,26.00
2009,09,12,16,23,25.90
2009,09,12,16,24,25.90
2009,09,12,16,25,25.90
2009,09,12,16,26,25.90
2009,09,12,16,27,25.90
2009,09,12,16,28,26.00
2009,09,12,16,29,26.10
2009,09,12,16,30,26.10
2009,09,12,16,31,26.10
2009,09,12,16,32,26.20
2009,09,12,16,33,26.20
2009,09,12,16,34,26.20
2009,09,12,16,35,26.10
2009,09,12,16,36,26.10
2009,09,12,16,37,26.00
2009,09,12,16,38,25.90
2009,09,12,16,39,25.90
2009,09,12,16,40,25.90
2009,09,12,16,41,25.90
2009,09,12,16,42,26.00
2009,09,12,16,43,26.10
2009,09,12,16,44,26.10
2009,09,12,16,45,26.20
2009,09,12,16,46,26.30
2009,09,12,16,47,26.30
2009,09,12,16,48,26.40
2009,09,12,16,49,26.30
2009,09,12,16,50,26.30
2009,09,12,16,51,26.40
2009,09,12,16,52,26.40
2009,09,12,16,53,26.50
2009,09,12,16,54,26.60
2009,09,12,16,55,26.60
2009,09,12,16,56,26.50
2009,09,12,16,57,26.40
2009,09,12,16,58,26.40
2009,09,12,16,59,26.60
2009,09,12,17,00,26.60
2009,09,12,17,01,26.60
2009,09,12,17,02,26.50
2009,09,12,17,03,26.40
2009,09,12,17,04,26.30
2009,09,12,17,05,26.20
2009,09,12,17,06,26.00
2009,09,12,17,07,26.00
2009,09,12,17,08,26.00
2009,09,12,17,09,26.00
2009,09,12,17,10,26.10
2009,09,12,17,11,26.10
2009,09,12,17,12,26.20
2009,09,12,17,13,26.30
2009,09,12,17,14,26.30
2009,09,12,17,15,26.30
2009,09,12,17,16,26.40
2009,09,12,17,17,26.40
2009,09,12,17,18,26.40
2009,09,12,17,19,26.20
2009,09,12,17,20,26.10
2009,09,12,17,21,26.00
2009,09,12,17,22,25.90
2009,09,12,17,23,25.90
2009,09,12,17,24,25.90
2009,09,12,17,25,25.80
2009,09,12,17,26,25.70
2009,09,12,17,27,25.50
2009,09,12,17,28,25.40
2009,09,12,17,29,25.30
2009,09,12,17,30,25.20
2009,09,12,17,31,25.10
2009,09,12,17,32,25.00
2009,09,12,17,33,24.90
2009,09,12,17,34,24.80
2009,09,12,17,35,24.70
2009,09,12,17,36,24.60
2009,09,12,17,37,24.60
2009,09,12,17,38,24.50
2009,09,12,17,39,24.50
2009,09,12,17,40,24.50
2009,09,12,17,41,24.40
2009,09,12,17,42,24.30
2009,09,12,17,43,24.10
2009,09,12,17,44,24.00
2009,09,12,17,45,23.90
2009,09,12,17,46,23.70
2009,09,12,17,47,23.70
2009,09,12,17,48,23.70
2009,09,12,17,49,23.60
2009,09,12,17,50,23.50
2009,09,12,17,51,23.40
2009,09,12,17,52,23.40
2009,09,12,17,53,23.40
2009,09,12,17,54,23.40
2009,09,12,17,55,23.40
2009,09,12,17,56,23.40
2009,09,12,17,57,23.40
2009,09,12,17,58,23.40
2009,09,12,17,59,23.40
2009,09,12,18,00,23.40
2009,09,12,18,01,23.40
2009,09,12,18,02,23.40
2009,09,12,18,03,23.30
2009,09,12,18,04,23.30
2009,09,12,18,05,23.30
2009,09,12,18,06,23.30
2009,09,12,18,07,23.30
2009,09,12,18,08,23.30
2009,09,12,18,09,23.30
2009,09,12,18,10,23.30
2009,09,12,18,11,23.30
2009,09,12,18,12,23.30
2009,09,12,18,13,23.30
2009,09,12,18,14,23.30
2009,09,12,18,15,23.30
2009,09,12,18,16,23.30
2009,09,12,18,17,23.30
2009,09,12,18,18,23.30
2009,09,12,18,19,23.30
2009,09,12,18,20,23.30
2009,09,12,18,21,23.30
2009,09,12,18,22,23.30
2009,09,12,18,23,23.30
2009,09,12,18,24,23.30
2009,09,12,18,25,23.30
2009,09,12,18,26,23.20
2009,09,12,18,27,23.20
2009,09,12,18,28,23.20
2009,09,12,18,29,23.20
2009,09,12,18,30,23.10
2009,09,12,18,31,23.00
2009,09,12,18,32,22.90
2009,09,12,18,33,22.90
2009,09,12,18,34,22.80
2009,09,12,18,35,22.70
2009,09,12,18,36,22.70
2009,09,12,18,37,22.60
2009,09,12,18,38,22.60
2009,09,12,18,39,22.50
2009,09,12,18,40,22.50
2009,09,12,18,41,22.40
2009,09,12,18,42,22.40
2009,09,12,18,43,22.40
2009,09,12,18,44,22.30
2009,09,12,18,45,22.30
2009,09,12,18,46,22.30
2009,09,12,18,47,22.30
2009,09,12,18,48,22.30
2009,09,12,18,49,22.30
2009,09,12,18,50,22.30
2009,09,12,18,51,22.30
2009,09,12,18,52,22.30